Previsão horária em Abertamy

Hoje, 16 Janeiro, Sábado

Tempo Temperatura Precipitação Vento Pressão Humidade
00:00 -12°C° 0.1 mm 2 m/s 687 mmHg 96%
01:00 -10°C° 0 mm 1 m/s 687 mmHg 96%
02:00 -12°C° 0.1 mm 2 m/s 687 mmHg 96%
03:00 -12°C° 0.1 mm 2 m/s 687 mmHg 96%
04:00 -13°C° 0.1 mm 2 m/s 686 mmHg 95%
05:00 -13°C° 0 mm 2 m/s 686 mmHg 95%
06:00 -13°C° 0 mm 2 m/s 686 mmHg 95%
07:00 -14°C° 0 mm 2 m/s 687 mmHg 95%
08:00 -13°C° 0 mm 2 m/s 687 mmHg 94%
09:00 -13°C° 0 mm 2 m/s 687 mmHg 93%
10:00 -12°C° 0 mm 2 m/s 687 mmHg 91%
11:00 -10°C° 0 mm 2 m/s 687 mmHg 89%
12:00 -12°C° 0 mm 3 m/s 686 mmHg 88%
13:00 -10°C° 0 mm 3 m/s 686 mmHg 86%
14:00 -10°C° 0.1 mm 3 m/s 686 mmHg 87%
15:00 -10°C° 0.1 mm 3 m/s 685 mmHg 89%
16:00 -10°C° 0.1 mm 3 m/s 685 mmHg 90%
17:00 -12°C° 0.1 mm 3 m/s 685 mmHg 91%
18:00 -12°C° 0.1 mm 3 m/s 684 mmHg 93%
19:00 -12°C° 0.1 mm 3 m/s 684 mmHg 94%
20:00 -12°C° 0 mm 2 m/s 684 mmHg 94%
21:00 -12°C° 0 mm 2 m/s 684 mmHg 95%
22:00 -13°C° 0 mm 2 m/s 684 mmHg 95%
23:00 -13°C° 0 mm 2 m/s 683 mmHg 95%

Amanhã, 17 Janeiro, Domingo

Tempo Temperatura Precipitação Vento Pressão Humidade
00:00 -11°C° 0 mm 1 m/s 683 mmHg 95%
01:00 -12°C° 0 mm 1 m/s 682 mmHg 95%
02:00 -12°C° 0 mm 1 m/s 682 mmHg 95%
03:00 -12°C° 0 mm 1 m/s 682 mmHg 94%
04:00 -11°C° 0 mm 1 m/s 681 mmHg 94%
05:00 -11°C° 0 mm 1 m/s 681 mmHg 94%
06:00 -12°C° 0 mm 1 m/s 681 mmHg 94%
07:00 -12°C° 0 mm 1 m/s 681 mmHg 94%
08:00 -11°C° 0 mm 1 m/s 681 mmHg 92%
09:00 -10°C° 0 mm 1 m/s 682 mmHg 91%
10:00 -9°C° 0 mm 0 m/s 682 mmHg 89%
11:00 -8°C° 0 mm 1 m/s 682 mmHg 87%
12:00 -7°C° 0 mm 1 m/s 683 mmHg 84%
13:00 -6°C° 0 mm 1 m/s 683 mmHg 82%
14:00 -7°C° 0 mm 0 m/s 683 mmHg 85%
15:00 -7°C° 0 mm 0 m/s 682 mmHg 89%
16:00 -8°C° 0 mm 0 m/s 682 mmHg 92%
17:00 -9°C° 0 mm 0 m/s 682 mmHg 92%
18:00 -10°C° 0 mm 0 m/s 683 mmHg 93%
19:00 -10°C° 0 mm 0 m/s 683 mmHg 93%
20:00 -10°C° 0 mm 1 m/s 683 mmHg 93%
21:00 -10°C° 0 mm 1 m/s 684 mmHg 93%
22:00 -10°C° 0 mm 1 m/s 684 mmHg 94%
23:00 -9°C° 0.1 mm 1 m/s 684 mmHg 94%

Depois de amanhã, 18 Janeiro, Segunda-feira

Tempo Temperatura Precipitação Vento Pressão Humidade
00:00 -9°C° 0.1 mm 1 m/s 684 mmHg 95%
01:00 -8°C° 0.1 mm 1 m/s 684 mmHg 96%
02:00 -8°C° 0.3 mm 2 m/s 684 mmHg 96%
03:00 -7°C° 0.3 mm 2 m/s 684 mmHg 96%
04:00 -6°C° 0.3 mm 2 m/s 685 mmHg 96%
05:00 -7°C° 0.5 mm 3 m/s 685 mmHg 96%
06:00 -6°C° 0.5 mm 3 m/s 685 mmHg 96%
07:00 -7°C° 0.5 mm 4 m/s 685 mmHg 96%
08:00 -5°C° 0.3 mm 4 m/s 686 mmHg 96%
09:00 -5°C° 0.3 mm 4 m/s 686 mmHg 95%
10:00 -5°C° 0.3 mm 4 m/s 686 mmHg 94%
11:00 -5°C° 0.2 mm 4 m/s 686 mmHg 94%
12:00 -4°C° 0.2 mm 4 m/s 687 mmHg 93%
13:00 -4°C° 0.2 mm 4 m/s 687 mmHg 93%
14:00 -4°C° 0.2 mm 4 m/s 686 mmHg 92%
15:00 -5°C° 0.2 mm 4 m/s 686 mmHg 92%
16:00 -5°C° 0.2 mm 4 m/s 686 mmHg 92%
17:00 -5°C° 0.1 mm 4 m/s 686 mmHg 93%
18:00 -5°C° 0.1 mm 4 m/s 686 mmHg 93%
19:00 -7°C° 0.1 mm 5 m/s 686 mmHg 93%
20:00 -6°C° 0.1 mm 5 m/s 686 mmHg 93%
21:00 -6°C° 0.1 mm 5 m/s 686 mmHg 93%
22:00 -6°C° 0.1 mm 5 m/s 686 mmHg 93%
23:00 -6°C° 0.1 mm 5 m/s 686 mmHg 93%

19 Janeiro, Terça-feira

Tempo Temperatura Precipitação Vento Pressão Humidade
00:00 -7°C° 0.1 mm 5 m/s 686 mmHg 93%
01:00 -7°C° 0.1 mm 5 m/s 686 mmHg 93%
02:00 -7°C° 0.1 mm 5 m/s 685 mmHg 93%
03:00 -7°C° 0.1 mm 4 m/s 685 mmHg 92%
04:00 -7°C° 0.1 mm 4 m/s 685 mmHg 92%
05:00 -7°C° 0 mm 4 m/s 684 mmHg 92%
06:00 -7°C° 0 mm 4 m/s 684 mmHg 92%
07:00 -7°C° 0 mm 4 m/s 683 mmHg 92%
08:00 -7°C° 0 mm 4 m/s 683 mmHg 90%
09:00 -7°C° 0 mm 5 m/s 683 mmHg 88%
10:00 -7°C° 0 mm 5 m/s 682 mmHg 86%
11:00 -7°C° 0.3 mm 5 m/s 682 mmHg 88%
12:00 -8°C° 0.3 mm 6 m/s 681 mmHg 90%
13:00 -7°C° 0.3 mm 7 m/s 680 mmHg 92%
14:00 -7°C° 0.4 mm 7 m/s 680 mmHg 91%
15:00 -6°C° 0.4 mm 7 m/s 680 mmHg 90%
16:00 -6°C° 0.4 mm 7 m/s 680 mmHg 89%
17:00 -4°C° 0 mm 6 m/s 680 mmHg 90%
18:00 -4°C° 0 mm 6 m/s 680 mmHg 91%
19:00 -4°C° 0 mm 6 m/s 680 mmHg 91%
20:00 -4°C° 0 mm 5 m/s 680 mmHg 91%
21:00 -4°C° 0 mm 5 m/s 680 mmHg 91%
22:00 -4°C° 0 mm 5 m/s 680 mmHg 90%
23:00 -4°C° 0 mm 5 m/s 679 mmHg 89%

20 Janeiro, Quarta-feira

Tempo Temperatura Precipitação Vento Pressão Humidade
00:00 -4°C° 0 mm 4 m/s 679 mmHg 87%
01:00 -4°C° 0 mm 4 m/s 679 mmHg 86%
02:00 -4°C° 0 mm 4 m/s 678 mmHg 84%
03:00 -5°C° 0 mm 4 m/s 678 mmHg 83%
04:00 -5°C° 0 mm 3 m/s 677 mmHg 82%
05:00 -5°C° 0 mm 3 m/s 677 mmHg 82%
06:00 -5°C° 0 mm 4 m/s 677 mmHg 82%
07:00 -5°C° 0 mm 4 m/s 677 mmHg 83%
08:00 -5°C° 0 mm 4 m/s 677 mmHg 82%
09:00 -4°C° 0 mm 4 m/s 677 mmHg 82%
10:00 -4°C° 0 mm 4 m/s 677 mmHg 82%
11:00 -3°C° 0 mm 4 m/s 677 mmHg 84%
12:00 -2°C° 0 mm 4 m/s 677 mmHg 86%
13:00 -2°C° 0 mm 4 m/s 676 mmHg 88%
14:00 -1°C° 0 mm 3 m/s 676 mmHg 86%
15:00 -1°C° 0 mm 3 m/s 675 mmHg 84%
16:00 -2°C° 0 mm 3 m/s 675 mmHg 82%
17:00 -2°C° 0 mm 2 m/s 675 mmHg 81%
18:00 -2°C° 0 mm 2 m/s 675 mmHg 79%
19:00 -3°C° 0 mm 2 m/s 674 mmHg 77%
20:00 -3°C° 0 mm 2 m/s 674 mmHg 76%
21:00 -3°C° 0 mm 2 m/s 674 mmHg 75%
22:00 -3°C° 0 mm 2 m/s 674 mmHg 74%
23:00 -3°C° 0 mm 2 m/s 674 mmHg 76%

21 Janeiro, Quinta-feira

Tempo Temperatura Precipitação Vento Pressão Humidade
00:00 -4°C° 0 mm 2 m/s 673 mmHg 78%
01:00 -5°C° 0 mm 2 m/s 673 mmHg 80%
02:00 -5°C° 0 mm 2 m/s 673 mmHg 83%
03:00 -6°C° 0 mm 2 m/s 672 mmHg 85%
04:00 -6°C° 0 mm 2 m/s 672 mmHg 88%
05:00 -6°C° 0 mm 2 m/s 672 mmHg 88%
06:00 -6°C° 0 mm 2 m/s 672 mmHg 88%
07:00 -6°C° 0 mm 2 m/s 671 mmHg 88%
08:00 -6°C° 0 mm 3 m/s 671 mmHg 87%
09:00 -5°C° 0 mm 3 m/s 672 mmHg 86%
10:00 -4°C° 0 mm 3 m/s 672 mmHg 85%
11:00 -4°C° 0.3 mm 4 m/s 672 mmHg 88%
12:00 -4°C° 0.3 mm 5 m/s 673 mmHg 92%
13:00 -3°C° 0.3 mm 6 m/s 674 mmHg 96%
14:00 -2°C° 0 mm 5 m/s 674 mmHg 94%
15:00 -4°C° 0 mm 5 m/s 674 mmHg 92%
16:00 -4°C° 0 mm 5 m/s 675 mmHg 91%
17:00 -4°C° 0 mm 5 m/s 675 mmHg 90%
18:00 -4°C° 0 mm 5 m/s 675 mmHg 89%
19:00 -5°C° 0 mm 5 m/s 676 mmHg 89%
20:00 -4°C° 0 mm 4 m/s 676 mmHg 90%
21:00 -4°C° 0 mm 4 m/s 676 mmHg 91%
22:00 -5°C° 0 mm 3 m/s 676 mmHg 93%
23:00 -5°C° 0 mm 3 m/s 676 mmHg 93%
Mostrar mais